TimeAKST,TemperatureF,Dew PointF,Humidity,Sea Level PressureIn,VisibilityMPH,Wind Direction,Wind SpeedMPH,Gust SpeedMPH,PrecipitationIn,Events,Conditions,WindDirDegrees,DateUTC
12:53 AM,1.9,-2.9,80,29.30,10.0,WSW,3.5,-,N/A,,Scattered Clouds,240,2014-01-01 09:53:00
1:53 AM,1.0,-5.1,75,29.29,10.0,Calm,Calm,-,N/A,,Mostly Cloudy,0,2014-01-01 10:53:00
2:53 AM,3.0,-2.0,80,29.27,10.0,West,3.5,-,N/A,,Mostly Cloudy,260,2014-01-01 11:53:00
3:53 AM,-0.0,-4.0,83,29.27,10.0,Calm,Calm,-,N/A,,Clear,0,2014-01-01 12:53:00
4:53 AM,-5.1,-9.0,83,29.26,10.0,Calm,Calm,-,N/A,,Mostly Cloudy,0,2014-01-01 13:53:00
5:53 AM,-4.0,-8.0,83,29.26,10.0,NW,3.5,-,N/A,,Mostly Cloudy,310,2014-01-01 14:53:00
6:53 AM,-6.0,-11.0,79,29.24,10.0,Calm,Calm,-,N/A,,Mostly Cloudy,0,2014-01-01 15:53:00
7:53 AM,-8.0,-13.0,79,29.24,10.0,Calm,Calm,-,N/A,,Mostly Cloudy,0,2014-01-01 16:53:00
8:53 AM,-7.1,-11.9,79,29.23,10.0,North,3.5,-,N/A,,Partly Cloudy,350,2014-01-01 17:53:00
9:53 AM,-0.9,-5.1,83,29.24,10.0,Calm,Calm,-,N/A,,Overcast,0,2014-01-01 18:53:00
10:53 AM,-2.9,-7.1,82,29.25,10.0,North,3.5,-,N/A,,Mostly Cloudy,350,2014-01-01 19:53:00
11:53 AM,-0.9,-5.1,83,29.25,10.0,Calm,Calm,-,N/A,,Mostly Cloudy,0,2014-01-01 20:53:00
12:53 PM,-0.0,-5.1,79,29.26,10.0,NW,4.6,-,N/A,,Mostly Cloudy,310,2014-01-01 21:53:00
1:53 PM,-0.0,-4.0,83,29.26,10.0,Calm,Calm,-,N/A,,Mostly Cloudy,0,2014-01-01 22:53:00
2:53 PM,1.0,-2.9,83,29.28,10.0,Calm,Calm,-,N/A,,Partly Cloudy,0,2014-01-01 23:53:00
3:53 PM,-0.0,-5.1,79,29.31,10.0,Calm,Calm,-,N/A,,Partly Cloudy,0,2014-01-02 00:53:00
4:53 PM,1.0,-4.0,79,29.34,10.0,Calm,Calm,-,N/A,,Partly Cloudy,0,2014-01-02 01:53:00
5:53 PM,1.0,-4.0,79,29.37,10.0,Calm,Calm,-,N/A,,Clear,0,2014-01-02 02:53:00
6:53 PM,1.9,-4.0,76,29.42,10.0,Calm,Calm,-,N/A,,Clear,0,2014-01-02 03:53:00
7:53 PM,3.9,-0.9,80,29.45,10.0,Calm,Calm,-,N/A,,Overcast,0,2014-01-02 04:53:00
8:53 PM,3.9,-0.9,80,29.48,10.0,Calm,Calm,-,N/A,,Overcast,0,2014-01-02 05:53:00
9:53 PM,3.9,-0.9,80,29.51,10.0,Calm,Calm,-,N/A,,Overcast,0,2014-01-02 06:53:00
10:53 PM,3.9,-0.9,80,29.56,10.0,Calm,Calm,-,N/A,,Mostly Cloudy,0,2014-01-02 07:53:00
11:53 PM,1.9,-2.9,80,29.61,10.0,Calm,Calm,-,N/A,,Mostly Cloudy,0,2014-01-02 08:53:00